Flag for U.S.A. Weather past 2 weeks in Fort Collins, Colorado, U.S.A.

Now
72 °F

Sunny.


Feels Like: 76 °F
Forecast: 51 / 87 °F
Wind: 5 mph from South

Location: Fort Collins-Loveland Municipal Airport

Current Time: Jun 2, 2015 at 11:36:47 AM

Latest Report: Jun 2, 2015 at 11:15 AM


Visibility: 10 mi

Pressure: 29.96 "Hg

Humidity: 61%

Dew point: 57 °F

Location of Fort CollinsLocation

Historic Weather in Fort Collins — Graph

°F

Fort Collins temperature yesterday

Maximum temperature yesterday: 82 °F (at 12:55 PM)
Minimum temperature yesterday: 52 °F (at 3:15 AM)
Average temperature yesterday: 67 °F

Past Weeks' High & Low Weather Summary

 TemperatureHumidityPressure
High82 °F (May 31, 3:15 PM)100% (May 19, 9:35 PM)30.39 "Hg (May 19, 9:35 PM)
Low34 °F (May 20, 4:15 AM)28% (Jun 1, 5:35 PM)29.83 "Hg (May 24, 4:55 PM)
Average54 °F75%30.09 "Hg
* Reported May 18 10:15 AM — Jun 2 10:35 AM, Fort Collins, Weather by CustomWeather, © 2015

Note: Actual official high and low records may vary slightly from our data, if they occured in-between our weather recording intervals... More about our weather records

Advertising

Fort Collins weather history for previous 24 hours

 ConditionsComfort  
Time TempWeatherWind HumidityBarometerVisibility
10:35 AM
Tue, Jun 2
70 °FSunny.3 mph57%29.97 "Hg10 mi
10:15 AM66 °FSunny.No wind60%29.97 "Hg10 mi
9:55 AM64 °FSunny.3 mph68%29.98 "Hg10 mi
9:35 AM63 °FSunny.3 mph73%29.98 "Hg10 mi
9:15 AM63 °FSunny.No wind73%29.99 "Hg10 mi
8:55 AM63 °FSunny.No wind77%30.00 "Hg10 mi
8:35 AM61 °FSunny.3 mph83%30.00 "Hg10 mi
8:15 AM59 °FSunny.No wind82%30.00 "Hg10 mi
7:55 AM57 °FSunny.5 mph88%30.00 "Hg10 mi
7:35 AM55 °FSunny.5 mph88%30.01 "Hg10 mi
7:15 AM55 °FSunny.6 mph88%30.01 "Hg10 mi
6:55 AM52 °FSunny.6 mph88%30.01 "Hg10 mi
6:35 AM52 °FSunny.3 mph88%30.01 "Hg10 mi
6:15 AM52 °FClear.No wind88%30.00 "Hg10 mi
5:55 AM54 °FClear.No wind82%30.00 "Hg10 mi
5:35 AM52 °FClear.5 mph88%29.99 "Hg10 mi
5:15 AM54 °FClear.3 mph82%29.99 "Hg10 mi
4:55 AM54 °FClear.7 mph82%29.98 "Hg10 mi
4:35 AM54 °FClear.9 mph82%29.98 "Hg10 mi
4:15 AM55 °FClear.8 mph82%29.98 "Hg10 mi
3:55 AM55 °FClear.6 mph82%29.98 "Hg10 mi
3:35 AM55 °FClear.6 mph88%29.98 "Hg10 mi
3:15 AM55 °FClear.9 mph82%29.99 "Hg10 mi
2:55 AM55 °FClear.7 mph88%29.99 "Hg10 mi
2:35 AM55 °FClear.6 mph82%30.00 "Hg10 mi
2:15 AM55 °FClear.7 mph88%30.00 "Hg10 mi
1:55 AM55 °FClear.9 mph82%30.00 "Hg10 mi
1:35 AM55 °FClear.7 mph82%30.00 "Hg10 mi
1:15 AM57 °FClear.7 mph77%29.99 "Hg10 mi
12:55 AM59 °FClear.8 mph72%29.98 "Hg10 mi
12:35 AM59 °FClear.7 mph72%30.00 "Hg10 mi
12:15 AM61 °FClear.10 mph72%29.99 "Hg10 mi
11:55 PM
Mon, Jun 1
59 °FClear.10 mph72%30.00 "Hg10 mi
11:35 PM61 °FClear.5 mph72%30.00 "Hg10 mi
11:15 PM61 °FClear.No wind72%30.00 "Hg10 mi
10:55 PM61 °FClear.7 mph68%30.00 "Hg10 mi
10:35 PM64 °FClear.9 mph64%30.00 "Hg10 mi
10:15 PM64 °FClear.10 mph60%30.01 "Hg10 mi
9:15 PM64 °FSunny.7 mph60%29.99 "Hg10 mi
8:55 PM66 °FSunny.9 mph60%29.98 "Hg10 mi
8:35 PM68 °FSunny.6 mph56%29.98 "Hg10 mi
8:15 PM68 °FSunny.7 mph53%29.98 "Hg10 mi
7:55 PM72 °FSunny.8 mph47%29.99 "Hg10 mi
7:35 PM70 °FSunny.8 mph57%29.99 "Hg10 mi
7:15 PM73 °FSunny.7 mph47%29.98 "Hg10 mi
6:55 PM75 °FSunny.9 mph44%29.98 "Hg10 mi
6:35 PM79 °FSunny.15 mph37%29.98 "Hg10 mi
6:15 PM77 °FSunny.10 mph42%29.97 "Hg10 mi
5:55 PM79 °FSunny.13 mph39%29.97 "Hg10 mi
5:35 PM82 °FSunny.6 mph28%29.98 "Hg10 mi
5:15 PM81 °FSunny.5 mph34%29.98 "Hg10 mi
4:55 PM77 °FSunny.6 mph34%29.98 "Hg10 mi
4:35 PM77 °FSunny.12 mph34%29.98 "Hg10 mi
4:15 PM75 °FSunny.12 mph44%29.97 "Hg10 mi
3:55 PM79 °FSunny.12 mph42%29.96 "Hg10 mi
3:35 PM77 °FSunny.9 mph42%29.99 "Hg10 mi
3:15 PM81 °FSunny.16 mph37%29.98 "Hg10 mi
2:55 PM82 °FSunny.10 mph35%29.98 "Hg10 mi
2:35 PM82 °FSunny.10 mph35%29.99 "Hg10 mi
2:15 PM82 °FPassing clouds.6 mph32%30.01 "Hg10 mi
1:55 PM77 °FSunny.5 mph42%30.04 "Hg10 mi
1:35 PM82 °FSunny.9 mph35%30.02 "Hg10 mi
1:15 PM82 °FSunny.8 mph37%30.02 "Hg10 mi
12:55 PM82 °FSunny.9 mph37%30.03 "Hg10 mi
12:35 PM81 °FSunny.7 mph37%30.04 "Hg10 mi
12:15 PM79 °FSunny.6 mph39%30.05 "Hg10 mi
11:55 AM79 °FSunny.6 mph39%30.06 "Hg10 mi
11:35 AM75 °FSunny.3 mph47%30.07 "Hg10 mi
11:15 AM75 °FSunny.No wind47%30.08 "Hg10 mi
Weather by CustomWeather, © 2015

See weather overviewHow to use our weather pages